Simultaneous Nadir Overpasses (SNOs) Predictions

Prediction of SNOs between NOAA-20 and AQUA Satellite Orbit:

Table of predicted SNOs for the next 14.0 days since TLE Epoch: 4/6/2024
Index Date (NOAA-20) Time (NOAA-20) Lat,Lon (NOAA-20) SZA (NOAA-20 ) Date (AQUA) Time (AQUA) Lat,Lon (AQUA) SZA (AQUA ) Distance(km) Time Diff (sec)
1 04/08/2024 09:42:19 -81.22, 136.07 99.09 04/08/2024 09:42:16 -81.22, 136.21 99.11 2.41 3
2 04/10/2024 21:45:43 81.22, 135.22 79.98 04/10/2024 21:46:42 81.22, 135.12 79.95 1.79 59
3 04/10/2024 22:36:28 -81.22, -57.28 100.07 04/10/2024 22:36:05 -81.22, -57.14 100.08 2.31 23
4 04/13/2024 10:39:52 81.22, -58.19 79.02 04/13/2024 10:40:30 81.22, -58.20 79.00 0.16 38
5 04/13/2024 11:30:35 -81.24, 110.10 101.14 04/13/2024 11:29:52 -81.24, 109.93 101.09 3.00 43
6 04/15/2024 23:34:01 81.22, 108.35 78.09 04/15/2024 23:34:17 81.23, 108.53 78.05 3.04 16
7 04/16/2024 00:24:44 -81.25, -83.33 102.07 04/16/2024 00:23:39 -81.25, -83.34 102.03 0.56 65



Historial Predications of SNOs between NOAA-20 and AQUA
